Chester, CT

1:03 PM EDT on March 28, 2017 (GMT -0400)
Chester

Weather History for KSNC - March, 2014

Change the Weather History Date:

Monday, March 31, 2014

  Actual Average (KHVN) Record (KHVN)
Temperature  
Mean Temperature 36 °F -  
Max Temperature 39 °F 49 °F 75 °F (1998)
Min Temperature 32 °F 36 °F 30 °F (2005)
Degree Days  
Heating Degree Days 30    
Moisture  
Dew Point 32 °F    
Average Humidity 84    
Maximum Humidity 100    
Minimum Humidity 70    
Precipitation  
Precipitation 0.53 in - - ()
Sea Level Pressure  
Sea Level Pressure 29.84 in    
Wind  
Wind Speed 13 mph (North)    
Max Wind Speed 21 mph    
Max Gust Speed 28 mph    
Visibility 8 miles    
Events Rain , Snow    
Averages and records for this station are not official NWS values.
T = Trace of Precipitation, MM = Missing Value Source: NWS Daily Summary

Daily Weather History Graph

Daily Weather History Graph

Search for Another Location

Airport or City:

Trip Planner

Search our weather history database for the weather conditions in past years. The results will help you decide how hot, cold, wet, or windy it might be!

Date:

Astronomy

Mar. 31, 2014 Rise Set
Actual Time 6:34 AM EDT 7:14 PM EDT
Civil Twilight 6:07 AM EDT 7:42 PM EDT
Nautical Twilight 5:34 AM EDT 8:15 PM EDT
Astronomical Twilight 5:00 AM EDT 8:49 PM EDT
Moon 6:55 AM EDT (3/31) 8:30 PM EDT (3/31)
Length of Visible Light 13h 35m
Length of Day
12h 39m
New Moon, 1% of the Moon is Illuminated
Mar 31
New Moon
Apr 7
First Quarter
Apr 15
Full
Apr 22
Last Quarter
Apr 29
New

Hourly Weather History & Observations

Time (EDT) Temp. Windchill Dew Point Humidity Pressure Visibility Wind Dir Wind Speed Gust Speed Precip Events Conditions
12:15 AM 37.4 °F 30.3 °F 33.8 °F 87% 29.66 in 10.0 mi NNE 10.4 mph 21.9 mph N/A   Light Drizzle
12:35 AM 37.4 °F 28.9 °F 33.8 °F 87% 29.67 in 10.0 mi NNE 13.8 mph 19.6 mph N/A   Overcast
12:55 AM 37.4 °F 29.3 °F 33.8 °F 87% 29.67 in 10.0 mi NNE 12.7 mph 18.4 mph N/A   Overcast
1:15 AM 37.4 °F 29.8 °F 33.8 °F 87% 29.67 in 10.0 mi NNE 11.5 mph 19.6 mph N/A   Overcast
1:35 AM 37.4 °F 28.5 °F 33.8 °F 87% 29.67 in 10.0 mi NNE 15.0 mph 20.7 mph N/A   Overcast
1:55 AM 37.4 °F 29.3 °F 35.6 °F 93% 29.68 in 10.0 mi North 12.7 mph 19.6 mph N/A   Overcast
2:15 AM 37.4 °F 30.3 °F 35.6 °F 93% 29.68 in 5.0 mi NNE 10.4 mph 16.1 mph 0.01 in Rain Rain
2:35 AM 37.4 °F 30.8 °F 35.6 °F 93% 29.67 in 5.0 mi NNE 9.2 mph - 0.07 in Rain Rain
2:55 AM 37.4 °F 30.3 °F 35.6 °F 93% 29.67 in 4.0 mi NNE 10.4 mph 19.6 mph 0.12 in Rain Rain
3:15 AM 37.4 °F 28.9 °F 35.6 °F 93% 29.67 in 4.0 mi North 13.8 mph 19.6 mph 0.02 in Rain Light Rain
3:35 AM 37.4 °F 29.3 °F 35.6 °F 93% 29.67 in 4.0 mi North 12.7 mph 21.9 mph 0.04 in Rain Rain
3:55 AM 37.4 °F 28.9 °F 35.6 °F 93% 29.68 in 4.0 mi North 13.8 mph 21.9 mph 0.11 in Rain Rain
4:15 AM 35.6 °F 25.5 °F 33.8 °F 93% 29.68 in 6.0 mi North 17.3 mph 24.2 mph 0.02 in   Overcast
4:35 AM 35.6 °F 26.2 °F 33.8 °F 93% 29.69 in 8.0 mi North 15.0 mph 23.0 mph 0.02 in   Overcast
4:55 AM 35.6 °F 27.1 °F 33.8 °F 93% 29.70 in 8.0 mi North 12.7 mph 17.3 mph 0.02 in   Overcast
5:15 AM 35.6 °F 26.2 °F 33.8 °F 93% 29.70 in 10.0 mi North 15.0 mph 20.7 mph N/A   Overcast
5:35 AM 35.6 °F 25.2 °F 33.8 °F 93% 29.71 in 10.0 mi North 18.4 mph - N/A   Overcast
5:55 AM 35.6 °F 26.6 °F 33.8 °F 93% 29.71 in 9.0 mi North 13.8 mph 20.7 mph N/A   Overcast
6:15 AM 35.6 °F 26.2 °F 33.8 °F 93% 29.72 in 10.0 mi North 15.0 mph 21.9 mph N/A   Overcast
6:35 AM 35.6 °F 27.1 °F 33.8 °F 93% 29.73 in 9.0 mi North 12.7 mph - N/A Rain Light Rain
6:55 AM 35.6 °F 26.6 °F 33.8 °F 93% 29.75 in 3.0 mi North 13.8 mph 21.9 mph 0.01 in Rain Light Rain
7:15 AM 35.6 °F 25.9 °F 32.0 °F 87% 29.76 in 3.0 mi North 16.1 mph 23.0 mph 0.03 in   Overcast
7:35 AM 35.6 °F 24.5 °F 32.0 °F 87% 29.77 in 5.0 mi NNW 20.7 mph 25.3 mph 0.05 in Rain Heavy Rain
7:55 AM 35.6 °F 26.6 °F 32.0 °F 87% 29.78 in 2.0 mi North 13.8 mph 27.6 mph 0.08 in   Overcast
8:15 AM 33.8 °F 23.9 °F 32.0 °F 93% 29.79 in 2.5 mi North 15.0 mph 21.9 mph N/A Rain Light Rain
8:35 AM 33.8 °F 23.5 °F 32.0 °F 93% 29.80 in 3.0 mi North 16.1 mph 21.9 mph N/A   Overcast
8:55 AM 33.8 °F 23.9 °F 32.0 °F 93% 29.80 in 2.0 mi North 15.0 mph 24.2 mph 0.02 in   Overcast
9:15 AM 33.8 °F 23.2 °F 32.0 °F 93% 29.81 in 0.5 mi North 17.3 mph 26.5 mph N/A Snow Snow
9:35 AM 33.8 °F 24.3 °F 32.0 °F 93% 29.82 in 0.2 mi North 13.8 mph 26.5 mph N/A Snow Light Snow
9:55 AM 33.8 °F 23.5 °F 32.0 °F 93% 29.82 in 0.8 mi NNW 16.1 mph 23.0 mph N/A Snow Snow
10:15 AM 32.0 °F 21.2 °F 32.0 °F 100% 29.82 in 0.2 mi North 16.1 mph 23.0 mph N/A Snow Snow
10:35 AM 33.8 °F 23.5 °F 32.0 °F 93% 29.83 in 0.8 mi North 16.1 mph 24.2 mph N/A Rain Heavy Rain
10:55 AM 33.8 °F 24.3 °F 32.0 °F 93% 29.83 in 1.5 mi North 13.8 mph 24.2 mph N/A Rain Heavy Rain
11:15 AM 33.8 °F 23.5 °F 32.0 °F 93% 29.84 in 3.0 mi North 16.1 mph 26.5 mph 0.08 in Rain Rain
11:35 AM 33.8 °F 25.3 °F 32.0 °F 93% 29.84 in 4.0 mi North 11.5 mph 18.4 mph 0.17 in Rain Light Rain
11:55 AM 33.8 °F 24.3 °F 32.0 °F 93% 29.84 in 10.0 mi NNW 13.8 mph 19.6 mph 0.17 in   Overcast
12:15 PM 35.6 °F 27.1 °F 32.0 °F 87% 29.84 in 10.0 mi NNW 12.7 mph 21.9 mph N/A   Overcast
12:35 PM 35.6 °F 26.2 °F 32.0 °F 87% 29.85 in 10.0 mi North 15.0 mph 18.4 mph N/A   Overcast
12:55 PM 35.6 °F 27.1 °F 32.0 °F 87% 29.85 in 10.0 mi North 12.7 mph 21.9 mph N/A   Overcast
1:15 PM 35.6 °F 28.0 °F 32.0 °F 87% 29.86 in 10.0 mi NNW 10.4 mph 23.0 mph N/A   Overcast
1:35 PM 37.4 °F 29.8 °F 32.0 °F 81% 29.85 in 10.0 mi NNW 11.5 mph 17.3 mph N/A   Overcast
1:55 PM 37.4 °F 29.3 °F 32.0 °F 81% 29.86 in 10.0 mi NNW 12.7 mph 20.7 mph N/A   Overcast
2:15 PM 39.2 °F 33.0 °F 32.0 °F 75% 29.86 in 10.0 mi NNW 9.2 mph - N/A   Overcast
2:35 PM 39.2 °F 31.6 °F 32.0 °F 75% 29.86 in 10.0 mi NNW 12.7 mph 17.3 mph N/A   Overcast
2:55 PM 37.4 °F 28.5 °F 32.0 °F 81% 29.86 in 10.0 mi NW 15.0 mph 21.9 mph N/A   Overcast
3:15 PM 37.4 °F 28.9 °F 32.0 °F 81% 29.87 in 10.0 mi NW 13.8 mph 21.9 mph N/A   Overcast
3:35 PM 39.2 °F 30.5 °F 32.0 °F 75% 29.88 in 10.0 mi NNW 16.1 mph 20.7 mph N/A   Overcast
3:55 PM 39.2 °F 30.8 °F 32.0 °F 75% 29.89 in 10.0 mi NNW 15.0 mph 21.9 mph N/A   Overcast
4:15 PM 39.2 °F 30.8 °F 32.0 °F 75% 29.89 in 10.0 mi NNW 15.0 mph 19.6 mph N/A   Overcast
4:35 PM 39.2 °F 32.0 °F 32.0 °F 75% 29.90 in 10.0 mi NNW 11.5 mph 21.9 mph N/A   Overcast
4:55 PM 39.2 °F 33.0 °F 32.0 °F 75% 29.91 in 10.0 mi North 9.2 mph - N/A   Overcast
5:15 PM 39.2 °F 30.8 °F 32.0 °F 75% 29.92 in 10.0 mi North 15.0 mph 21.9 mph N/A   Overcast
5:35 PM 39.2 °F 31.6 °F 32.0 °F 75% 29.92 in 10.0 mi North 12.7 mph 21.9 mph N/A   Overcast
5:55 PM 39.2 °F 32.0 °F 32.0 °F 75% 29.93 in 10.0 mi NNW 11.5 mph 23.0 mph N/A   Overcast
6:15 PM 39.2 °F 31.6 °F 30.2 °F 70% 29.93 in 10.0 mi North 12.7 mph 26.5 mph N/A   Overcast
6:35 PM 39.2 °F 32.0 °F 32.0 °F 75% 29.94 in 10.0 mi NNW 11.5 mph - N/A   Overcast
6:55 PM 39.2 °F 31.2 °F 30.2 °F 70% 29.95 in 10.0 mi NNW 13.8 mph 23.0 mph N/A   Overcast
7:15 PM 39.2 °F 31.2 °F 30.2 °F 70% 29.96 in 10.0 mi NNW 13.8 mph 18.4 mph N/A   Overcast
7:35 PM 39.2 °F 31.2 °F 30.2 °F 70% 29.97 in 10.0 mi NNW 13.8 mph 26.5 mph N/A   Overcast
7:55 PM 39.2 °F 29.8 °F 30.2 °F 70% 29.97 in 10.0 mi North 18.4 mph 24.2 mph N/A   Overcast
8:15 PM 37.4 °F 28.9 °F 30.2 °F 75% 29.98 in 10.0 mi NNW 13.8 mph 21.9 mph N/A   Overcast
8:35 PM 37.4 °F 28.5 °F 30.2 °F 75% 29.99 in 10.0 mi NNW 15.0 mph 20.7 mph N/A   Overcast
8:55 PM 37.4 °F 30.3 °F 30.2 °F 75% 30.00 in 10.0 mi NNW 10.4 mph - N/A   Overcast
9:15 PM 37.4 °F 29.3 °F 30.2 °F 75% 30.01 in 10.0 mi NNW 12.7 mph 20.7 mph N/A   Overcast
9:35 PM 37.4 °F 29.3 °F 30.2 °F 75% 30.01 in 10.0 mi North 12.7 mph 16.1 mph N/A   Overcast
9:55 PM 37.4 °F 28.9 °F 30.2 °F 75% 30.01 in 10.0 mi NNW 13.8 mph 20.7 mph N/A   Overcast
10:15 PM 37.4 °F 28.5 °F 28.4 °F 70% 30.01 in 10.0 mi NNW 15.0 mph 25.3 mph N/A   Overcast
10:35 PM 37.4 °F 28.5 °F 28.4 °F 70% 30.01 in 10.0 mi North 15.0 mph 21.9 mph N/A   Overcast
10:55 PM 37.4 °F 28.5 °F 28.4 °F 70% 30.01 in 10.0 mi North 15.0 mph 23.0 mph N/A   Overcast
11:15 PM 37.4 °F 28.5 °F 28.4 °F 70% 30.01 in 10.0 mi North 15.0 mph 21.9 mph N/A   Overcast
11:35 PM 37.4 °F 28.9 °F 28.4 °F 70% 30.01 in 10.0 mi North 13.8 mph 21.9 mph N/A   Overcast
11:55 PM 37.4 °F 28.9 °F 28.4 °F 70% 30.01 in 10.0 mi North 13.8 mph - N/A   Overcast